• In Italy
  • List of Countries
  • For 7 days
  • Water Temperature
  • Satellite Maps
  • Weather Map
  • Weather Widgets
  • user-avatar
    Login

    Hourly Weather Rehovot

    Today, 16 January, Tuesday

    Time Temperature Precipitation Wind Pressure Humidity
    00:00 +14°C° 0 mm 1 mps 764 mmHg 81%
    01:00 +14°C° 0 mm 1 mps 764 mmHg 81%
    02:00 +14°C° 0 mm 2 mps 764 mmHg 82%
    03:00 +13°C° 0 mm 2 mps 764 mmHg 81%
    04:00 +13°C° 0 mm 2 mps 764 mmHg 81%
    05:00 +13°C° 0 mm 2 mps 764 mmHg 81%
    06:00 +14°C° 0 mm 2 mps 764 mmHg 78%
    07:00 +14°C° 0 mm 2 mps 764 mmHg 76%
    08:00 +15°C° 0 mm 2 mps 764 mmHg 71%
    09:00 +16°C° 0 mm 2 mps 763 mmHg 67%
    10:00 +17°C° 0 mm 2 mps 763 mmHg 63%
    11:00 +18°C° 0 mm 2 mps 763 mmHg 58%
    12:00 +18°C° 0 mm 2 mps 763 mmHg 57%
    13:00 +18°C° 0 mm 3 mps 762 mmHg 56%
    14:00 +19°C° 0 mm 3 mps 761 mmHg 55%
    15:00 +18°C° 0 mm 3 mps 761 mmHg 60%
    16:00 +17°C° 0 mm 3 mps 761 mmHg 64%
    17:00 +16°C° 0 mm 3 mps 761 mmHg 68%
    18:00 +16°C° 0 mm 2 mps 761 mmHg 71%
    19:00 +15°C° 0 mm 2 mps 761 mmHg 73%
    20:00 +15°C° 0 mm 2 mps 760 mmHg 76%
    21:00 +15°C° 0 mm 2 mps 760 mmHg 76%
    22:00 +15°C° 0 mm 2 mps 760 mmHg 76%
    23:00 +14°C° 0 mm 1 mps 760 mmHg 76%

    Tomorrow, 17 January, Wednesday

    Time Temperature Precipitation Wind Pressure Humidity
    00:00 +14°C° 0 mm 1 mps 760 mmHg 76%
    01:00 +14°C° 0 mm 1 mps 760 mmHg 76%
    02:00 +14°C° 0 mm 1 mps 759 mmHg 76%
    03:00 +14°C° 0.1 mm 1 mps 759 mmHg 77%
    04:00 +13°C° 0.1 mm 2 mps 759 mmHg 78%
    05:00 +13°C° 0.1 mm 2 mps 759 mmHg 80%
    06:00 +13°C° 0.1 mm 2 mps 759 mmHg 78%
    07:00 +14°C° 0.1 mm 2 mps 759 mmHg 77%
    08:00 +14°C° 0.1 mm 2 mps 759 mmHg 76%
    09:00 +14°C° 0.1 mm 3 mps 758 mmHg 72%
    10:00 +15°C° 0.1 mm 4 mps 758 mmHg 67%
    11:00 +16°C° 0.1 mm 5 mps 758 mmHg 62%
    12:00 +16°C° 0.6 mm 5 mps 758 mmHg 66%
    13:00 +16°C° 0.6 mm 6 mps 758 mmHg 69%
    14:00 +16°C° 0.6 mm 6 mps 757 mmHg 72%
    15:00 +15°C° 0.4 mm 5 mps 757 mmHg 74%
    16:00 +15°C° 0.4 mm 4 mps 757 mmHg 76%
    17:00 +15°C° 0.4 mm 4 mps 757 mmHg 78%
    18:00 +14°C° 0.2 mm 3 mps 757 mmHg 79%
    19:00 +14°C° 0.2 mm 3 mps 757 mmHg 80%
    20:00 +14°C° 0.2 mm 3 mps 758 mmHg 81%
    21:00 +14°C° 0.2 mm 3 mps 758 mmHg 81%
    22:00 +14°C° 0.2 mm 3 mps 758 mmHg 81%
    23:00 +14°C° 0.2 mm 3 mps 758 mmHg 81%

    Day after tomorrow, 18 January, Thursday

    Time Temperature Precipitation Wind Pressure Humidity
    00:00 +13°C° 0.2 mm 4 mps 758 mmHg 81%
    01:00 +13°C° 0.2 mm 4 mps 758 mmHg 81%
    02:00 +13°C° 0.2 mm 4 mps 757 mmHg 81%
    03:00 +13°C° 0.2 mm 4 mps 757 mmHg 81%
    04:00 +13°C° 0.2 mm 4 mps 757 mmHg 81%
    05:00 +13°C° 0.2 mm 5 mps 757 mmHg 80%
    06:00 +13°C° 0.2 mm 5 mps 757 mmHg 78%
    07:00 +13°C° 0.2 mm 6 mps 757 mmHg 76%
    08:00 +14°C° 0.2 mm 6 mps 757 mmHg 74%
    09:00 +15°C° 0.1 mm 7 mps 756 mmHg 70%
    10:00 +16°C° 0.1 mm 8 mps 756 mmHg 66%
    11:00 +17°C° 0.1 mm 9 mps 756 mmHg 62%
    12:00 +17°C° 0.1 mm 9 mps 755 mmHg 63%
    13:00 +17°C° 0.1 mm 9 mps 754 mmHg 63%
    14:00 +17°C° 0.1 mm 10 mps 753 mmHg 63%
    15:00 +17°C° 0 mm 10 mps 753 mmHg 63%
    16:00 +16°C° 0 mm 9 mps 753 mmHg 63%
    17:00 +16°C° 0 mm 9 mps 752 mmHg 62%
    18:00 +16°C° 0.5 mm 10 mps 752 mmHg 61%
    19:00 +16°C° 0.5 mm 11 mps 752 mmHg 60%
    20:00 +15°C° 0.5 mm 13 mps 752 mmHg 59%
    21:00 +14°C° 1.6 mm 14 mps 752 mmHg 63%
    22:00 +13°C° 1.6 mm 16 mps 752 mmHg 67%
    23:00 +11°C° 1.6 mm 17 mps 752 mmHg 71%

    19 January, Friday

    Time Temperature Precipitation Wind Pressure Humidity
    00:00 +10°C° 0.6 mm 16 mps 752 mmHg 69%
    01:00 +9°C° 0.6 mm 16 mps 753 mmHg 67%
    02:00 +9°C° 0.6 mm 15 mps 753 mmHg 65%
    03:00 +9°C° 0.5 mm 14 mps 753 mmHg 65%
    04:00 +9°C° 0.5 mm 13 mps 754 mmHg 65%
    05:00 +9°C° 0.5 mm 13 mps 754 mmHg 66%
    06:00 +9°C° 0.2 mm 12 mps 755 mmHg 64%
    07:00 +10°C° 0.2 mm 12 mps 755 mmHg 63%
    08:00 +10°C° 0.2 mm 12 mps 756 mmHg 62%
    09:00 +12°C° 0.1 mm 12 mps 756 mmHg 59%
    10:00 +12°C° 0.1 mm 12 mps 757 mmHg 57%
    11:00 +13°C° 0.1 mm 12 mps 757 mmHg 55%
    12:00 +13°C° 0 mm 11 mps 757 mmHg 54%
    13:00 +13°C° 0 mm 11 mps 757 mmHg 53%
    14:00 +13°C° 0 mm 10 mps 757 mmHg 52%
    15:00 +13°C° 0 mm 9 mps 758 mmHg 55%
    16:00 +12°C° 0 mm 8 mps 758 mmHg 57%
    17:00 +13°C° 0 mm 6 mps 759 mmHg 59%
    18:00 +13°C° 0 mm 6 mps 759 mmHg 61%
    19:00 +12°C° 0 mm 5 mps 760 mmHg 63%
    20:00 +12°C° 0 mm 4 mps 761 mmHg 65%
    21:00 +12°C° 0 mm 4 mps 761 mmHg 66%
    22:00 +12°C° 0 mm 3 mps 761 mmHg 67%
    23:00 +12°C° 0 mm 3 mps 762 mmHg 68%

    20 January, Saturday

    Time Temperature Precipitation Wind Pressure Humidity
    00:00 +11°C° 0 mm 3 mps 762 mmHg 70%
    01:00 +12°C° 0 mm 2 mps 762 mmHg 71%
    02:00 +12°C° 0 mm 2 mps 762 mmHg 73%
    03:00 +12°C° 0 mm 2 mps 762 mmHg 74%
    04:00 +12°C° 0 mm 2 mps 762 mmHg 75%
    05:00 +11°C° 0 mm 1 mps 762 mmHg 76%
    06:00 +12°C° 0 mm 2 mps 763 mmHg 75%
    07:00 +12°C° 0 mm 2 mps 763 mmHg 75%
    08:00 +12°C° 0 mm 3 mps 764 mmHg 74%
    09:00 +13°C° 0 mm 3 mps 764 mmHg 68%
    10:00 +15°C° 0 mm 2 mps 763 mmHg 63%
    11:00 +16°C° 0 mm 2 mps 763 mmHg 57%
    12:00 +17°C° 0 mm 2 mps 763 mmHg 54%
    13:00 +19°C° 0 mm 1 mps 762 mmHg 50%
    14:00 +19°C° 0 mm 1 mps 762 mmHg 47%
    15:00 +19°C° 0 mm 1 mps 762 mmHg 49%
    16:00 +17°C° 0 mm 2 mps 762 mmHg 52%
    17:00 +16°C° 0 mm 2 mps 761 mmHg 55%
    18:00 +16°C° 0 mm 2 mps 762 mmHg 54%
    19:00 +16°C° 0 mm 3 mps 762 mmHg 53%
    20:00 +14°C° 0 mm 3 mps 762 mmHg 52%
    21:00 +14°C° 0 mm 3 mps 762 mmHg 50%
    22:00 +14°C° 0 mm 4 mps 761 mmHg 47%
    23:00 +14°C° 0 mm 4 mps 761 mmHg 45%

    21 January, Sunday

    Time Temperature Precipitation Wind Pressure Humidity
    00:00 +13°C° 0 mm 4 mps 761 mmHg 45%
    01:00 +13°C° 0 mm 4 mps 761 mmHg 45%
    02:00 +13°C° 0 mm 4 mps 760 mmHg 46%
    03:00 +13°C° 0 mm 5 mps 760 mmHg 45%
    04:00 +13°C° 0 mm 5 mps 760 mmHg 44%
    05:00 +13°C° 0 mm 5 mps 759 mmHg 44%
    06:00 +13°C° 0 mm 5 mps 759 mmHg 43%
    07:00 +14°C° 0 mm 5 mps 759 mmHg 42%
    08:00 +14°C° 0 mm 5 mps 760 mmHg 42%
    09:00 +16°C° 0 mm 5 mps 759 mmHg 38%
    10:00 +19°C° 0 mm 5 mps 759 mmHg 34%
    11:00 +21°C° 0 mm 4 mps 759 mmHg 30%
    12:00 +21°C° 0 mm 4 mps 758 mmHg 28%
    13:00 +22°C° 0 mm 4 mps 757 mmHg 26%
    14:00 +24°C° 0 mm 3 mps 756 mmHg 24%
    15:00 +22°C° 0 mm 3 mps 756 mmHg 27%
    16:00 +20°C° 0 mm 2 mps 756 mmHg 30%
    17:00 +19°C° 0 mm 2 mps 756 mmHg 33%
    18:00 +19°C° 0 mm 3 mps 756 mmHg 31%
    19:00 +18°C° 0 mm 3 mps 756 mmHg 29%
    20:00 +18°C° 0 mm 4 mps 756 mmHg 27%
    21:00 +18°C° 0 mm 4 mps 756 mmHg 27%
    22:00 +18°C° 0 mm 4 mps 756 mmHg 26%
    23:00 +17°C° 0 mm 4 mps 756 mmHg 26%
    Show more